Change the Weather History Date:

Monday, September 30, 2013

  Actual Average Record
Temperature  
Mean Temperature 82 °F -  
Max Temperature 87 °F 87 °F 93 °F (1997)
Min Temperature 76 °F 76 °F 73 °F (2007)
Cooling Degree Days 16    
Growing Degree Days 32 (Base 50)    
Moisture  
Dew Point 76 °F    
Average Humidity 78    
Maximum Humidity 89    
Minimum Humidity 70    
Precipitation  
Precipitation 0.00 in 0.46 in - ()
Sea Level Pressure  
Sea Level Pressure 29.77 in    
Wind  
Wind Speed 11 mph ()    
Max Wind Speed 20 mph    
Max Gust Speed 21 mph    
Visibility 4.4 miles    
Events Rain    
Averages and records for this station are not official NWS values.
T = Trace of Precipitation, MM = Missing Value Source: Averaged Metar Reports

Daily Weather History Graph

Daily Weather History Graph

Search for Another Location

Airport or City:

Trip Planner

Search our weather history database for the weather conditions in past years. The results will help you decide how hot, cold, wet, or windy it might be!

Date:

Astronomy

Sep. 30, 2013 Rise Set
Actual Time 6:15 AM ICT 6:18 PM ICT
Civil Twilight 5:54 AM ICT 6:39 PM ICT
Nautical Twilight 5:29 AM ICT 7:03 PM ICT
Astronomical Twilight 5:05 AM ICT 7:27 PM ICT
Moon 2:10 AM ICT (9/30) 2:48 PM ICT (9/30)
Length of Visible Light 12h 45m
Length of Day
12h 03m
Waning Crescent, 23% of the Moon is Illuminated
Sep 30
Waning Crescent
Oct 5
New
Oct 12
First Quarter
Oct 19
Full
Oct 27
Last Quarter

Hourly Weather History & Observations

Time (ICT) Temp. Heat Index Dew Point Humidity Pressure Visibility Wind Dir Wind Speed Gust Speed Precip Events Conditions
12:00 AM 80.6 °F 86.2 °F 75.2 °F 84% 29.80 in 4.3 mi Variable 6.9 mph - N/A   Mostly Cloudy
12:30 AM 80.6 °F 86.2 °F 75.2 °F 84% 29.80 in 5.0 mi WSW 5.8 mph - N/A   Mostly Cloudy
1:00 AM 80.6 °F 86.2 °F 75.2 °F 84% 29.77 in 5.0 mi WSW 8.1 mph - N/A   Mostly Cloudy
1:30 AM 80.6 °F 87.1 °F 77.0 °F 89% 29.77 in 5.0 mi Variable 9.2 mph 20.7 mph N/A   Mostly Cloudy
2:00 AM 82.4 °F 89.5 °F 75.2 °F 79% 29.74 in 5.0 mi West 13.8 mph - N/A   Mostly Cloudy
2:30 AM 82.4 °F 89.5 °F 75.2 °F 79% 29.74 in 5.0 mi West 13.8 mph - N/A   Mostly Cloudy
3:00 AM 80.6 °F 86.2 °F 75.2 °F 84% 29.74 in 5.0 mi West 12.7 mph - N/A   Mostly Cloudy
4:00 AM 80.6 °F 86.2 °F 75.2 °F 84% 29.74 in 4.3 mi West 13.8 mph - N/A Rain Light Rain
4:30 AM 80.6 °F 86.2 °F 75.2 °F 84% 29.71 in 4.3 mi West 12.7 mph - N/A   Mostly Cloudy
5:30 AM 80.6 °F 86.2 °F 75.2 °F 84% 29.74 in 4.3 mi West 15.0 mph - N/A   Mostly Cloudy
6:30 AM 80.6 °F 86.2 °F 75.2 °F 84% 29.74 in 5.0 mi West 11.5 mph - N/A   Mostly Cloudy
7:00 AM 82 °F - 78 °F 83% 29.73 in 5 mi NW 4.6 mph - -   Mist
7:00 AM 82.4 °F 89.5 °F 75.2 °F 79% 29.77 in 4.3 mi West 10.4 mph - N/A   Mostly Cloudy
7:30 AM 82.4 °F 89.5 °F 75.2 °F 79% 29.77 in 4.3 mi West 13.8 mph - N/A   Mostly Cloudy
8:00 AM 82.4 °F 90.9 °F 77.0 °F 84% 29.80 in 4.3 mi West 13.8 mph - N/A   Mostly Cloudy
8:30 AM 82.4 °F 89.5 °F 75.2 °F 79% 29.80 in 4.3 mi West 13.8 mph - N/A   Mostly Cloudy
9:00 AM 84.2 °F 94.1 °F 77.0 °F 79% 29.80 in 4.3 mi West 15.0 mph - N/A   Mostly Cloudy
9:30 AM 84.2 °F 94.1 °F 77.0 °F 79% 29.83 in 4.3 mi West 15.0 mph - N/A   Mostly Cloudy
10:00 AM 82.4 °F 88.2 °F 73.4 °F 74% 29.83 in 4.3 mi WNW 11.5 mph - N/A   Mostly Cloudy
10:30 AM 84.2 °F 94.1 °F 77.0 °F 79% 29.83 in 4.3 mi West 12.7 mph - N/A   Mostly Cloudy
11:00 AM 86.0 °F 96.9 °F 77.0 °F 74% 29.80 in 4.3 mi West 17.3 mph - N/A   Mostly Cloudy
11:30 AM 86.0 °F 95.1 °F 75.2 °F 70% 29.80 in 4.3 mi West 17.3 mph - N/A   Mostly Cloudy
12:00 PM 86.0 °F 95.1 °F 75.2 °F 70% 29.80 in 4.3 mi West 18.4 mph - N/A   Mostly Cloudy
12:30 PM 86.0 °F 95.1 °F 75.2 °F 70% 29.77 in 4.3 mi West 18.4 mph - N/A   Mostly Cloudy
1:00 PM 86 °F - 79 °F 74% 29.75 in 4 mi West 17.3 mph - -   Mist
1:00 PM 86.0 °F 95.1 °F 75.2 °F 70% 29.77 in 4.3 mi West 19.6 mph - N/A   Mostly Cloudy
1:30 PM 86.0 °F 95.1 °F 75.2 °F 70% 29.74 in 4.3 mi West 17.3 mph - N/A   Mostly Cloudy
2:00 PM 86.0 °F 95.1 °F 75.2 °F 70% 29.74 in 4.3 mi West 11.5 mph - N/A   Mostly Cloudy
2:30 PM 86.0 °F 96.9 °F 77.0 °F 74% 29.74 in 4.3 mi West 16.1 mph - N/A   Mostly Cloudy
3:00 PM 86.0 °F 95.1 °F 75.2 °F 70% 29.74 in 4.3 mi West 18.4 mph - N/A   Mostly Cloudy
3:30 PM 84.2 °F 92.3 °F 75.2 °F 74% 29.71 in 4.3 mi West 16.1 mph - N/A   Mostly Cloudy
4:00 PM 84.2 °F 92.3 °F 75.2 °F 74% 29.71 in 4.3 mi West 15.0 mph - N/A   Mostly Cloudy
4:30 PM 84.2 °F 92.3 °F 75.2 °F 74% 29.71 in 4.3 mi West 12.7 mph - N/A Rain Light Rain
5:00 PM 82.4 °F 90.9 °F 77.0 °F 84% 29.74 in 4.3 mi West 15.0 mph - N/A   Mostly Cloudy
5:30 PM 84.2 °F 92.3 °F 75.2 °F 74% 29.74 in 4.3 mi West 15.0 mph - N/A   Mostly Cloudy
6:00 PM 82.4 °F 89.5 °F 75.2 °F 79% 29.74 in 4.3 mi West 12.7 mph - N/A   Mostly Cloudy
6:30 PM 82.4 °F 89.5 °F 75.2 °F 79% 29.77 in 4.3 mi West 12.7 mph - N/A   Mostly Cloudy
7:00 PM 84 °F - 76 °F 72% 29.72 in 4 mi NW 11.5 mph - -   Mist
7:00 PM 82.4 °F 89.5 °F 75.2 °F 79% 29.77 in 4.3 mi West 13.8 mph - N/A Rain Light Rain
7:30 PM 80.6 °F 86.2 °F 75.2 °F 84% 29.77 in 4.3 mi WNW 10.4 mph - N/A Rain Light Rain
8:00 PM 82.4 °F 89.5 °F 75.2 °F 79% 29.80 in 4.3 mi West 11.5 mph - N/A   Mostly Cloudy
8:30 PM 82.4 °F 89.5 °F 75.2 °F 79% 29.80 in 4.3 mi West 12.7 mph - N/A   Mostly Cloudy
9:00 PM 82.4 °F 89.5 °F 75.2 °F 79% 29.80 in 4.3 mi West 10.4 mph - N/A   Mostly Cloudy
9:30 PM 82.4 °F 89.5 °F 75.2 °F 79% 29.83 in 4.3 mi WNW 11.5 mph - N/A   Mostly Cloudy
10:00 PM 82.4 °F 89.5 °F 75.2 °F 79% 29.83 in 4.3 mi West 12.7 mph - N/A   Mostly Cloudy
10:30 PM 82.4 °F 89.5 °F 75.2 °F 79% 29.83 in 4.3 mi West 11.5 mph - N/A   Mostly Cloudy
11:00 PM 82.4 °F 89.5 °F 75.2 °F 79% 29.83 in 4.3 mi West 11.5 mph - N/A   Mostly Cloudy
11:30 PM 82.4 °F 89.5 °F 75.2 °F 79% 29.80 in 4.3 mi West 9.2 mph - N/A   Mostly Cloudy